Погода Сасово

Погода Сасово : погода сейчас, прогноз погоды и архив. Всё, что Вы хотите узнать о погоде Сасово!

Хотите узнать прогноз погоды Сасово? Тогда Вам сюда: Погода Сасово

Поиск расширенной информации на нашем сайте:

Полезная информация: Изготовление и производство картонной упаковки ppk-m.ru/product/5.

Другие новости

Новости СМИ2

Главная страница сайта

Новости сайта

03.07.2017

Напоминаем, что на нашем специализированном сайте Метеоцентр.Азия вы можете получить высокодетализированные автоматические прогнозы погоды по пунктам России, СНГ и мира в авиационном формате (включающие направление и скорость ветра, видимость, явления погоды, количество и форму облачности, нижнюю и верхнюю границу облачности).

Рекомендуем: Научно технические и инжиниринговые услуги.

Погода Сасово - сегодня

Время (UTC), дата Ветер
(°,м/с) 
Видим.   Явления Облачность Т
(°С)
Тd
(°С)
f(%) Тe
(°С)
Pmin
(гПа)
dP
(гПа)
Po
(мм)
O2
(г/м3)
Тmin Tmax R s Состояние
почвы
03 15.08.17 010 (С) 20000 м  слаб. ливневой дождь  10/5 1000 м кучево-дожд., средняя 
[Cb cap|Ac As]
+18.2 +16.6 90 +31  1018.7  0.9  754  281  +17.2    0.0    влажная 
06 15.08.17 030 (СВ) 20000 м  {ливн. осадки}  10/5 300 м кучево-дожд., средняя 
[Cb cap|Ac As]
+20.2 +18.1 88 +35  1019.7  755  279           
09 15.08.17 010 (С) 20000 м    10/6 840 м кучево-дожд., средняя 
[Cb cap|Ac trans]
+22 +17.1 74 +34  1020.9  1.3  756  278           
12 15.08.17 010 (С) 20000 м    10/6 960 м кучево-дожд., верхняя 
[Cb cap|Ci fib]
+23.7 +17 66 +36  1021.3  0.6  756  277           
15 15.08.17 020 (С) 20000 м    6/6 840 м кучево-дожд. 
[Cb cap]
+21.8 +16.4 71 +33  1022.2  0.8  757  279    +23.8  0.0     
21 15.08.17 360 (С) 3000 м  дымка  ясно 
+15.5 +15.1 97 +25  1024.6  0.7  758  286           
00 16.08.17 360 (С) 2500 м  дымка  ясно 
+14 +13.7 98 +21  1025.2  0.5  759  288           
03 16.08.17 350 (С) 6000 м  дымка  3/3 200 м 
[St]
+13.6 +13.3 98 +20  1026.1  0.9  759  289  +13        сухая 
06 16.08.17 060 (СВ) 20000 м    10/10 270 м 
[St]
+17.7 +15.6 88 +27  1026.9  0.9  760  284           
09 16.08.17 040 (СВ) 20000 м    8/8 960 м 
[Cu hum]
+22.4 +15.6 65 +32  1026.6  0.1  760  280           
12 16.08.17 080 (В) 20000 м    8/8 1140 м 
[Cu hum]
+24.7 +14.1 52 +32  1026.3  -0.2  760  278           
15 16.08.17 080 (В) 20000 м    3/3 1000 м 
[Cu hum]
+23 +14.5 59 +30  1025.9  -0.4  759  279    +24.7       
18 16.08.17 060 (СВ) 10 км    ясно 
+16.7 +13.6 82 +24  1026.6  0.4  760  286           
21 16.08.17 050 (СВ) 10 км    ясно 
+14.2 +12.9 92 +20  1027.2  0.5  760  289           
00 17.08.17 050 (СВ) 10 км    ясно 
+12.4 +11.2 92 +15  1027.5  0.2  760  291           
03 17.08.17 010 (С) 20000 м    1/0 средняя 
[Ac cast]
+12.2 +10.9 92 +15  1028.1  0.5  761  291  +11.6        сухая 
06 17.08.17 100 (В) 40000 м    ясно 
+20.5 +13.3 63 +26  1028  0.3  761  283           
09 17.08.17 100 (В) 20000 м    5/0 
[Cu hum]
+23.1 +13.3 54 +29  1026.6  -1.3  760  280           
12 17.08.17 060 (СВ) 20000 м    4/0 
[Cu hum]
+24.7 +10.8 42 +27  1026.4  -0.8  760  279           
15 17.08.17 080 (В) 20000 м    ясно 
+22.9 +11.7 49 +26  1025.8  -0.6  759  280    +25.1       
18 17.08.17 070 (В) 10 км    ясно 
+15.5 +10.8 74 +18  1026.3  0.1  759  288           
21 17.08.17 350 (С) 10 км    ясно 
+13.8 +11.6 87 +18  1026.4  759  289           
00 18.08.17 330 (СЗ) 10 км    ясно 
+11.7 +11.1 96 +14  1026.4  -0.1  759  291           
03 18.08.17 010 (С) 1500 м  дымка  3/3 600 м 
[Sc]
+11 +10.6 97 +14  1026.8  0.4  760  292  +10.4        сухая 
06 18.08.17 140 (ЮВ) 20000 м    1/0 верхняя 
[Ci fib]
+19.6 +13.3 67 +27  1026.4  760  283           
Время (UTC), дата Ветер
(°,м/с) 
Видим.   Явления Облачность Т
(°С)
Тd
(°С)
f(%) Тe
(°С)
Pmin
(гПа)
dP
(гПа)
Po
(мм)
O2
(г/м3)
Тmin Tmax R s Состояние
почвы

Для получения пояснительной информации подведите курсор к названию столбца.

ПОГОДА Сасово - архив

Всё, что Вы хотите узнать о погоде Сасово - удобно и подробно!

Выберите нужную дату (начиная с 1 января 2015* года) и нажмите кнопку "Найти".
Будут отображены архивные сводки погоды по пункту Сасово, начиная с указанной даты.


Отображать данные в формате CSV (для использования в таблицах Excel)


Внимание! Наш архив погоды предназначен исключительно для личного некоммерческого использования в познавательных целях. Если Вам необходимы официальные справки о состоянии погоды (для производственных, юридических, коммерческих и т.п. целей), обращайтесь в органы Росгидромета.

*Примечание: данная дата относится к архиву по метеостанциям СССР (Россия, СНГ, Балтия).
Архив по метеостанциям Зарубежной Европы и Азии (кроме Китая) хранится 10 дней, по другим регионам земного шара (Китай, Африка, Америка, Австралия, Океания) - 1 день.

Сасово - район местоположения метеостанции


Название, широта, долгота, высота метеостанции:
Сасово 54.3°ш. 41.1°д. 115 м над ур. моря [Российская Федерация]

Дополнительная информация

В oтличие oт бoльшинства пoгoдных сайтoв мы публикуем пoдрoбную метеoинфoрмацию в детальнoм прoфессиoнальнoм фoрмате.

Характеристики температуры и влажнoсти вoздуха измеряются на высoте 2 м в тени вдали oт зданий и деревьев.
Скoрoсть ветра измеряется на высoте 10 м (на урoвне рoста челoвека скoрoсть ветра ниже в 1.5-2 раза). Если метеoстанция нахoдится в гoрoде или в лесу, тo скoрoсть ветра занижена на 2-4 м/с пo сравнению с oткрытым местoм. Скoрoсть ветра над акватoриями крупных рек и oзёр, а также на вершинах хoлмoв на 2-5 м/с выше, чем в oбычных услoвиях.
Атмoсфернoе давление в разных тoчках местнoсти мoжет значительнo oтличаться oт давления на метеoстанции, в зависимoсти oт услoвий рельефа (при пoдъёме на 10 м давление пoнижается примернo на 1 мм рт.ст.).